WetterOnline ( https://www.wetteronline.de )

Wetter aktuell Sonnaz

Aktuelles Wetter: Aix-Les-Bains/Chambéry Aéroport (235m)

6-stündlich | Neueste Meldungen
Ortszeit Temperatur Wetter
Mi, 17.04. 20:00 7.3° C bedeckt
Mi, 17.04. 14:00 7.3° C leichter Regen
Mi, 17.04. 8:00 6.7° C bedeckt
Mi, 17.04. 2:00 6.8° C leichter Regen
Di, 16.04. 20:00 11.2° C bedeckt
Di, 16.04. 14:00 12.1° C wolkig
Di, 16.04. 8:00 7.6° C bewölkt
Di, 16.04. 2:00 14.1° C bedeckt
Ortszeit Temperatur Wetter
Mi, 17.04. 20:00 7.3° C bedeckt
Mi, 17.04. 19:00 7.6° C bewölkt
Mi, 17.04. 18:00 8.4° C bedeckt
Mi, 17.04. 17:00 8.8° C bewölkt
Mi, 17.04. 16:00 7.3° C leichter Regen
Mi, 17.04. 15:00 8.4° C bewölkt
Mi, 17.04. 14:00 7.3° C leichter Regen
Ortszeit Relative Feuchte Sichtweite
Mi, 17.04. 20:00 89% 50 km
Mi, 17.04. 14:00 80% 5.0 km
Mi, 17.04. 8:00 90% 60 km
Mi, 17.04. 2:00 90% 30 km
Di, 16.04. 20:00 49% 55 km
Di, 16.04. 14:00 56% 19 km
Di, 16.04. 8:00 83% 60 km
Di, 16.04. 2:00 47% 60 km
Ortszeit Relative Feuchte Sichtweite
Mi, 17.04. 20:00 89% 50 km
Mi, 17.04. 19:00 86% 12 km
Mi, 17.04. 18:00 77% 50 km
Mi, 17.04. 17:00 83% 17 km
Mi, 17.04. 16:00 84% 5.0 km
Mi, 17.04. 15:00 72% 35 km
Mi, 17.04. 14:00 80% 5.0 km
Ortszeit Niederschlagsmenge Niederschlagsart
Mi, 17.04. 20:00 3 l/m2 in 12 Std. -
Mi, 17.04. 14:00 0.8 l/m2 in 6 Std. -
Mi, 17.04. 8:00 3 l/m2 in 12 Std. -
Mi, 17.04. 2:00 2 l/m2 in 6 Std. -
Di, 16.04. 20:00 0.1 l/m2 in 12 Std. -
Di, 16.04. 14:00 0.1 l/m2 in 6 Std. -
Di, 16.04. 8:00 0.1 l/m2 in 12 Std. -
Di, 16.04. 2:00 0.0 l/m2 in 6 Std. -
Ortszeit Niederschlagsmenge Niederschlagsart
Mi, 17.04. 20:00 keine Meldung -
Mi, 17.04. 19:00 0.8 l/m2 in 1 Std. -
Mi, 17.04. 18:00 0.0 l/m2 in 1 Std. -
Mi, 17.04. 17:00 keine Meldung -
Mi, 17.04. 16:00 0.8 l/m2 in 1 Std. -
Mi, 17.04. 15:00 0.0 l/m2 in 1 Std. -
Mi, 17.04. 14:00 keine Meldung -
Ortszeit Stärke Spitze Richtung
km/h Bft. km/h Grad Sektor
Mi, 17.04. 20:00 6 1 11 80° O
Mi, 17.04. 14:00 13 3 57 100° O
Mi, 17.04. 8:00 4 1 17 230° SW
Mi, 17.04. 2:00 6 1 31 170° S
Di, 16.04. 20:00 9 2 28 330° NW
Di, 16.04. 14:00 17 3 30 20° N
Di, 16.04. 8:00 6 1 33 100° O
Di, 16.04. 2:00 6 1 35 270° W
Ortszeit Stärke Spitze Richtung
km/h Bft. km/h Grad Sektor
Mi, 17.04. 20:00 6 1 11 80° O
Mi, 17.04. 19:00 7 2 20 210° SW
Mi, 17.04. 18:00 9 2 30 140° SO
Mi, 17.04. 17:00 19 3 26 150° SO
Mi, 17.04. 16:00 11 2 19 190° S
Mi, 17.04. 15:00 11 2 22 330° NW
Mi, 17.04. 14:00 13 3 57 100° O
Ortszeit Untergrenze Bedeckung Gattung
total tief tief mittel hoch
Mi, 17.04. 20:00 - 8/8 - - - -
Mi, 17.04. 14:00 - 8/8 - - - -
Mi, 17.04. 8:00 - 8/8 - - - -
Mi, 17.04. 2:00 - 8/8 - - - -
Di, 16.04. 20:00 - 8/8 - - - -
Di, 16.04. 14:00 - 6/8 - - - -
Di, 16.04. 8:00 - 7/8 - - - -
Di, 16.04. 2:00 - 8/8 - - - -
Ortszeit Bedeckungsgrad in Achtel und Wolkenuntergrenze
Mi, 17.04. 20:00 8
Mi, 17.04. 19:00 7
Mi, 17.04. 18:00 8
Mi, 17.04. 17:00 7
Mi, 17.04. 16:00 8
Mi, 17.04. 15:00 7
Mi, 17.04. 14:00 8
Ortszeit Luftdruck NN (hPa) Tendenz (hPa in 3 Std.)
Mi, 17.04. 20:00 1015 + 0,5
Mi, 17.04. 14:00 1015 - 0,8
Mi, 17.04. 8:00 1016 + 0,7
Mi, 17.04. 2:00 1015 + 0,1
Di, 16.04. 20:00 1015 - 0,1
Di, 16.04. 14:00 1016 - 1,3
Di, 16.04. 8:00 1018 + 2,0
Di, 16.04. 2:00 1016 - 0,1
Ortszeit Luftdruck NN (hPa) Tendenz (hPa in 3 Std.)
Mi, 17.04. 20:00 1015 + 0,5
Mi, 17.04. 19:00 1015 - 0,3
Mi, 17.04. 18:00 1014 - 0,8
Mi, 17.04. 17:00 1014 - 0,6
Mi, 17.04. 16:00 1015 - 0,4
Mi, 17.04. 15:00 1015 - 0,6
Mi, 17.04. 14:00 1015 - 0,8
Ortszeit Schneehöhe (cm)
Mi, 17.04. 20:00 0
Mi, 17.04. 14:00 0
Mi, 17.04. 8:00 0
Mi, 17.04. 2:00 0
Di, 16.04. 20:00 0
Di, 16.04. 14:00 0
Di, 16.04. 8:00 0
Di, 16.04. 2:00 0
Ortszeit Schneehöhe (cm)
Mi, 17.04. 20:00 0
Mi, 17.04. 19:00 -
Mi, 17.04. 18:00 -
Mi, 17.04. 17:00 0
Mi, 17.04. 16:00 -
Mi, 17.04. 15:00 -
Mi, 17.04. 14:00 0
Link zu dieser Seite / Seite empfehlen

Das Wetter in ...